Wind_Speed
10 9 8 8 7 6 6 6 6 5 5 7 8 9 8 9 10 10 10 10 11 11 11 11 11 11 11 11 11 10 10 9 9 10 9 9 9 9 8 7 6 5 5 4
11 9 9 8 7 6 5 5 4 4 3 4 5 6 6 7 7 8 8 9 10 10 10 10 10 11 11 11 11 11 11 10 9 9 9 9 9 9 8 7 7 6 6 5
12 11 10 9 8 7 6 5 4 2 1 1 3 3 3 5 6 6 6 7 8 9 9 9 10 10 10 10 10 10 10 10 10 10 9 9 9 9 9 8 8 8 7 6
14 13 12 10 9 8 7 6 5 3 2 1 0 1 1 2 4 5 5 5 5 7 8 8 9 9 9 9 10 10 10 9 10 10 9 9 8 8 8 8 8 9 8 8
15 14 12 11 10 10 8 7 7 6 4 2 2 2 1 0 1 3 4 4 4 5 6 7 8 8 9 9 10 10 9 9 10 10 10 9 9 9 9 9 8 9 9 8
17 16 14 13 12 12 11 9 9 8 7 5 5 5 3 2 1 2 3 3 4 4 5 5 6 7 8 8 9 9 10 9 9 10 10 9 9 10 10 10 9 10 10 10
18 17 16 14 13 13 13 11 10 11 10 8 7 7 5 4 3 2 2 2 3 3 4 4 5 6 6 7 8 8 9 9 9 10 10 10 10 10 10 10 10 10 10 10
19 19 17 16 14 13 14 13 13 12 12 11 9 8 6 5 5 4 4 3 2 2 3 3 4 5 5 6 7 8 8 9 9 10 10 10 10 10 10 10 11 11 11 11
20 20 19 18 16 15 15 15 14 15 15 14 12 10 8 7 7 6 5 5 4 4 4 4 5 5 5 5 6 7 8 9 8 9 10 10 10 10 11 12 12 12 12 12
22 21 21 20 19 17 17 16 16 16 16 16 15 13 11 9 8 8 8 7 6 6 6 6 6 6 6 6 7 8 8 9 9 9 10 10 10 11 12 13 13 13 13 13
24 24 22 22 22 20 19 19 19 19 18 18 17 14 12 11 11 11 10 9 8 8 8 8 8 8 8 8 8 9 10 10 10 11 11 11 11 12 12 13 14 14 15 15
25 25 25 24 24 22 22 21 21 21 20 20 20 17 14 14 13 13 12 11 11 11 10 10 10 11 11 11 11 11 11 12 12 13 13 13 13 13 13 14 15 15 16 16
27 27 27 26 26 26 24 23 23 23 22 22 22 19 17 16 15 15 14 14 13 13 13 12 12 12 13 13 13 13 14 14 15 15 15 15 15 15 15 15 16 16 17 17
29 29 28 28 27 26 26 26 26 25 25 24 23 21 20 19 17 16 16 17 16 16 16 15 15 14 14 14 14 15 15 16 16 17 17 17 18 18 17 17 18 18 19 19
32 32 30 29 28 28 27 27 27 27 27 26 25 24 22 21 19 18 18 19 18 18 17 17 17 16 16 16 16 17 17 18 18 18 18 18 19 19 19 19 20 21 21 21
34 34 32 32 31 30 30 29 28 28 28 28 28 26 24 23 22 21 21 20 20 20 20 19 18 19 19 19 18 18 19 19 19 20 20 20 21 21 21 22 23 23 23 24
36 35 34 34 33 33 32 30 30 30 29 29 29 27 27 25 24 24 23 22 22 22 22 22 21 22 22 22 21 20 20 21 21 21 22 22 22 23 24 24 25 25 26 26
37 37 36 35 34 36 33 31 31 31 31 31 30 29 28 27 26 26 25 24 24 24 24 24 24 24 24 24 24 23 23 23 24 23 24 24 24 25 26 26 27 27 27 28
38 37 36 36 36 35 34 32 31 32 32 31 31 30 30 29 28 28 28 28 27 26 26 26 26 26 26 26 26 26 26 25 25 25 25 27 27 27 27 28 29 30 30 30
37 37 37 36 36 36 33 32 32 33 33 31 31 31 30 30 30 29 29 30 29 29 28 28 27 28 28 28 28 28 28 27 27 27 28 29 30 30 30 30 31 31 31 31
37 37 38 37 37 36 33 33 33 34 33 32 31 31 30 30 31 30 30 31 30 30 29 29 29 30 30 30 30 30 31 30 30 30 30 31 32 32 32 33 33 33 32 33
37 37 38 38 38 36 34 34 33 33 33 33 33 32 32 32 31 31 32 32 32 32 32 32 32 32 32 33 33 33 33 33 33 33 33 33 33 34 34 34 34 35 35 35
36 37 38 38 38 36 36 35 34 34 34 34 35 35 34 33 33 32 33 33 34 35 35 35 35 34 34 35 35 35 35 34 34 34 34 35 35 36 35 36 36 36 36 36
37 37 38 38 37 36 36 35 35 35 35 35 36 36 35 34 33 33 34 35 35 36 37 36 36 36 36 36 36 36 37 36 36 36 36 36 37 37 36 37 37 37 37 37
37 36 37 37 36 36 36 36 36 35 36 36 36 36 36 35 33 33 35 36 35 35 36 37 38 37 36 37 37 36 37 37 37 38 38 38 38 38 38 38 38 38 38 39
37 36 36 36 36 35 35 36 36 35 35 36 37 37 36 36 35 35 35 35 36 36 36 36 36 36 36 37 37 36 37 38 38 37 38 39 39 39 39 39 38 39 40 40
Wind_Direction
177 172 164 161 157 153 147 122 107 103 91 86 79 68 63 64 68 68 67 67 69 68 63 60 60 61 63 63 60 56 57 56 51 46 45 43 41 44 50 49 40 38 33 23
189 186 182 180 176 173 172 152 129 122 101 83 79 65 61 61 66 68 69 67 68 68 65 63 61 61 60 61 58 52 52 49 48 46 43 38 38 42 45 47 46 35 27 18
198 199 199 197 193 193 199 192 184 173 158 56 71 66 64 56 62 67 67 70 69 64 61 59 58 56 55 56 54 50 47 45 45 43 38 37 36 35 36 38 35 30 19 9
203 206 206 207 203 204 203 211 224 222 217 256 333 74 73 53 54 60 63 69 69 61 57 54 54 54 52 51 49 47 44 45 40 36 35 32 29 28 26 29 27 23 15 6
206 210 211 213 213 216 214 224 241 240 227 241 278 307 301 309 32 39 45 57 57 59 57 53 51 50 48 44 41 40 40 41 38 34 33 31 28 25 23 21 18 13 10 4
211 213 217 222 226 227 227 235 245 245 249 260 282 289 267 271 294 334 15 37 37 47 53 46 45 44 42 38 34 32 32 32 32 31 27 22 19 22 21 18 14 9 7 2
215 217 222 228 232 234 238 242 252 256 259 268 273 277 271 272 270 274 320 356 16 28 34 28 30 32 29 26 24 22 22 22 21 20 20 17 17 17 15 12 6 360 357 353
220 220 224 231 236 244 249 248 254 259 260 265 266 266 272 270 265 271 293 309 329 348 3 -0 2 6 9 7 6 6 8 10 8 7 8 7 9 8 4 1 357 353 348 344
225 224 225 230 233 241 248 250 255 257 258 261 259 259 261 266 263 265 274 286 293 299 317 334 340 345 344 342 343 347 349 350 350 349 352 355 358 356 351 348 347 345 342 340
226 224 222 228 232 239 244 249 252 255 257 257 258 259 263 265 264 267 268 279 283 286 299 314 321 323 323 325 327 331 333 334 334 336 336 339 343 342 338 339 339 335 334 334
229 228 226 230 233 238 244 248 251 253 254 258 260 264 266 266 265 268 270 273 277 283 291 300 305 308 309 311 316 317 317 316 318 319 319 323 327 330 330 330 331 331 330 329
231 232 231 232 235 238 242 246 249 251 253 257 261 265 267 265 266 266 268 268 271 277 281 287 293 297 301 303 304 304 305 307 307 309 312 310 314 317 318 319 320 321 322 324
233 235 235 234 236 239 244 246 248 250 253 256 260 265 267 267 269 266 264 265 267 272 277 285 289 290 294 297 299 299 300 303 301 302 307 307 309 308 308 310 313 315 315 315
235 238 239 240 241 243 245 247 248 249 252 256 259 263 266 270 270 268 265 265 266 271 278 283 286 287 289 291 294 297 299 300 301 302 305 305 306 307 308 308 308 309 311 312
239 241 243 242 242 244 245 246 249 250 254 256 259 261 265 268 270 270 268 265 264 270 276 283 286 287 289 289 293 297 297 298 299 301 303 305 306 306 306 306 306 306 307 308
240 242 243 244 244 244 245 245 247 250 253 256 258 260 263 265 268 270 270 268 268 270 274 279 284 285 288 291 293 295 293 295 296 297 299 301 302 302 303 303 304 305 305 305
240 242 244 245 245 247 246 245 247 250 252 254 257 259 260 262 264 267 270 271 272 274 275 277 280 284 287 288 290 292 291 291 294 294 296 298 299 299 301 301 300 300 301 301
241 243 245 246 246 247 248 248 250 252 253 255 256 258 260 261 264 266 268 270 272 274 276 277 278 281 283 287 288 289 290 290 291 292 293 294 295 296 298 299 299 299 298 297
242 243 245 247 248 249 248 249 251 252 253 254 256 259 260 261 264 266 268 269 271 272 274 276 277 279 282 285 287 287 288 288 288 288 290 292 293 293 294 295 296 297 298 297
241 242 245 248 249 250 251 251 252 254 255 256 258 259 260 261 262 265 267 268 269 270 270 272 275 277 280 284 286 287 287 287 287 287 288 289 290 291 292 293 294 296 296 296
243 244 246 249 251 252 253 253 253 254 256 257 258 258 259 260 261 262 263 264 265 269 269 272 275 277 281 283 284 285 286 287 287 287 287 288 289 290 291 291 292 292 292 292
245 246 247 250 252 253 253 253 253 256 257 257 258 259 260 260 261 261 262 262 264 266 268 271 273 276 279 281 283 284 284 286 286 287 287 287 288 290 290 291 291 290 290 291
246 247 249 251 253 255 254 253 254 255 257 258 258 259 259 260 261 261 261 263 265 266 269 271 273 275 279 280 281 283 283 286 287 286 286 287 288 289 289 290 290 290 290 290
246 247 250 252 252 253 254 254 254 256 257 257 258 259 259 260 261 261 261 263 265 266 269 271 273 274 277 278 279 280 281 284 286 285 285 286 288 289 289 289 289 289 288 288
247 249 250 251 253 255 254 255 255 256 256 256 256 258 260 260 261 262 263 265 266 267 270 272 273 273 276 276 277 279 280 282 284 283 284 286 287 288 288 288 289 289 289 289
247 250 251 252 253 254 255 255 256 257 256 256 256 257 260 261 262 263 264 266 268 271 272 273 275 275 276 277 277 278 279 281 283 285 284 285 286 288 288 288 288 289 289 288
Height
5909 5911 5911 5912 5912 5912 5912 5913 5912 5913 5912 5912 5912 5911 5911 5910 5909 5908 5907 5906 5905 5904 5903 5902 5901 5900 5899 5898 5897 5896 5895 5895 5893 5893 5892 5891 5889 5888 5887 5886 5886 5886 5885 5884
5910 5911 5911 5912 5912 5912 5913 5913 5914 5914 5914 5913 5913 5913 5912 5912 5911 5910 5909 5908 5907 5906 5905 5904 5903 5902 5901 5899 5899 5898 5897 5896 5895 5894 5893 5892 5891 5889 5888 5887 5887 5886 5885 5884
5909 5911 5911 5912 5912 5913 5913 5914 5915 5915 5914 5914 5914 5915 5914 5913 5912 5912 5910 5909 5908 5907 5906 5905 5904 5903 5902 5901 5900 5899 5898 5897 5896 5895 5894 5893 5892 5891 5889 5888 5887 5886 5885 5884
5907 5909 5910 5911 5912 5913 5914 5914 5915 5915 5915 5915 5916 5915 5915 5914 5913 5913 5912 5910 5909 5908 5907 5906 5905 5904 5903 5902 5901 5900 5899 5898 5897 5896 5895 5894 5893 5892 5890 5889 5888 5887 5886 5884
5906 5908 5909 5911 5912 5912 5913 5914 5914 5914 5914 5915 5915 5915 5916 5914 5914 5914 5913 5912 5911 5910 5909 5908 5907 5906 5905 5904 5902 5901 5900 5899 5898 5897 5896 5895 5894 5892 5891 5890 5889 5887 5886 5884
5904 5906 5908 5910 5911 5911 5912 5913 5913 5913 5914 5914 5915 5915 5916 5915 5915 5914 5913 5912 5911 5911 5910 5909 5908 5907 5906 5905 5904 5903 5901 5900 5899 5898 5897 5896 5894 5893 5891 5890 5889 5887 5886 5884
5902 5905 5906 5908 5909 5910 5911 5912 5913 5913 5913 5914 5914 5913 5915 5915 5914 5914 5913 5912 5912 5911 5910 5909 5908 5907 5906 5906 5905 5903 5902 5901 5900 5899 5898 5896 5895 5893 5892 5890 5888 5887 5885 5883
5900 5903 5905 5906 5907 5908 5909 5910 5911 5912 5912 5912 5912 5912 5914 5914 5914 5913 5913 5912 5911 5911 5910 5909 5908 5908 5907 5906 5905 5904 5903 5902 5901 5900 5898 5897 5895 5894 5892 5890 5888 5886 5884 5882
5897 5900 5902 5903 5905 5906 5906 5907 5909 5909 5909 5910 5910 5911 5912 5912 5912 5912 5912 5912 5911 5910 5910 5909 5908 5907 5906 5906 5905 5904 5903 5902 5901 5900 5898 5897 5895 5893 5892 5890 5888 5885 5883 5881
5893 5896 5899 5900 5902 5903 5904 5905 5906 5906 5906 5907 5908 5909 5911 5911 5911 5911 5911 5910 5910 5909 5909 5908 5907 5907 5906 5905 5904 5903 5902 5901 5900 5899 5897 5896 5894 5892 5890 5888 5886 5884 5882 5879
5889 5892 5895 5896 5898 5899 5901 5902 5902 5903 5904 5904 5905 5909 5909 5909 5909 5909 5909 5909 5908 5908 5907 5907 5906 5905 5905 5904 5903 5902 5901 5899 5898 5897 5895 5894 5892 5890 5889 5887 5885 5882 5880 5878
5885 5887 5890 5892 5894 5895 5896 5897 5899 5900 5901 5901 5902 5907 5906 5906 5907 5907 5907 5907 5906 5906 5905 5905 5904 5904 5903 5902 5901 5900 5899 5897 5896 5894 5893 5891 5890 5888 5886 5884 5882 5880 5878 5875
5879 5882 5885 5887 5891 5891 5892 5893 5894 5896 5897 5897 5898 5903 5902 5903 5904 5904 5904 5904 5903 5903 5903 5902 5902 5901 5900 5900 5898 5897 5896 5894 5893 5891 5890 5888 5887 5885 5883 5881 5879 5877 5875 5872
5874 5876 5879 5883 5885 5886 5887 5889 5890 5891 5892 5893 5894 5896 5898 5899 5900 5900 5900 5900 5900 5900 5900 5899 5899 5898 5897 5896 5895 5894 5893 5891 5890 5888 5886 5885 5883 5881 5880 5878 5876 5873 5871 5869
5866 5869 5872 5875 5878 5880 5881 5883 5884 5886 5887 5888 5890 5891 5893 5894 5895 5895 5896 5896 5896 5896 5896 5895 5895 5894 5893 5892 5891 5890 5889 5887 5886 5884 5883 5881 5879 5877 5875 5873 5871 5869 5867 5864
5859 5862 5865 5868 5871 5872 5874 5876 5878 5880 5881 5882 5884 5887 5888 5889 5890 5890 5891 5891 5891 5891 5891 5890 5890 5889 5889 5888 5887 5886 5884 5883 5881 5880 5878 5877 5875 5873 5871 5869 5866 5864 5862 5859
5851 5855 5857 5860 5863 5864 5866 5870 5872 5874 5875 5877 5879 5882 5882 5883 5884 5885 5886 5886 5886 5886 5886 5885 5885 5884 5883 5883 5882 5880 5879 5877 5876 5875 5873 5871 5870 5868 5866 5863 5861 5858 5856 5853
5844 5847 5849 5852 5856 5856 5863 5864 5865 5867 5869 5871 5872 5874 5876 5877 5878 5879 5880 5880 5880 5880 5880 5879 5879 5878 5877 5876 5875 5874 5873 5871 5870 5868 5867 5865 5864 5862 5860 5857 5855 5852 5850 5847
5836 5839 5841 5844 5846 5848 5854 5856 5858 5859 5861 5864 5865 5867 5869 5870 5871 5872 5872 5873 5873 5873 5873 5873 5872 5871 5870 5869 5868 5867 5866 5864 5863 5861 5860 5858 5857 5855 5853 5850 5848 5846 5843 5841
5827 5830 5833 5835 5837 5840 5847 5848 5849 5852 5853 5857 5858 5860 5862 5863 5864 5865 5865 5865 5865 5865 5865 5865 5865 5864 5864 5862 5861 5860 5858 5857 5855 5854 5853 5851 5849 5847 5845 5843 5841 5838 5836 5833
5819 5821 5824 5827 5829 5832 5837 5840 5842 5844 5847 5849 5850 5852 5853 5854 5856 5857 5857 5857 5857 5857 5857 5857 5857 5857 5856 5854 5853 5852 5850 5849 5848 5846 5845 5843 5841 5839 5837 5835 5832 5830 5827 5825
5809 5813 5816 5818 5821 5826 5829 5831 5834 5835 5837 5839 5841 5843 5845 5846 5847 5848 5848 5849 5849 5849 5849 5849 5849 5848 5847 5846 5844 5843 5842 5841 5839 5838 5836 5834 5831 5830 5828 5825 5823 5821 5818 5816
5800 5804 5807 5810 5814 5817 5819 5822 5824 5826 5828 5830 5832 5834 5836 5837 5838 5839 5840 5840 5840 5840 5840 5840 5839 5839 5838 5837 5836 5834 5833 5831 5830 5828 5826 5824 5822 5820 5818 5815 5813 5811 5809 5806
5791 5794 5797 5800 5803 5807 5810 5812 5814 5816 5819 5820 5822 5824 5826 5828 5829 5830 5831 5831 5831 5831 5831 5830 5829 5829 5828 5827 5826 5825 5823 5822 5820 5818 5816 5814 5812 5810 5808 5806 5803 5801 5798 5796
5782 5785 5787 5790 5794 5797 5800 5802 5805 5807 5809 5811 5813 5815 5816 5818 5820 5821 5821 5821 5821 5821 5820 5820 5818 5818 5817 5816 5815 5814 5813 5811 5809 5807 5806 5804 5802 5800 5797 5795 5793 5790 5788 5785
5773 5775 5778 5781 5785 5787 5790 5793 5795 5798 5799 5801 5803 5805 5807 5808 5810 5810 5811 5811 5811 5810 5810 5809 5807 5806 5806 5805 5804 5803 5802 5800 5798 5796 5795 5794 5791 5789 5787 5784 5782 5779 5777 5774